This demonstration page uses our WeatherBlox Daily Observations layout. Learn more.

Hourly Observations for March 30, 2018

Temp ( °F °C ) Dew Point ( °F °C ) Humidity (%) Winds ( mph kmh ) Pressure ( in mb ) Visibility ( mi km ) Precip ( " mm )
12:15 am 00:15 Clear 28 -2.3 24 -4.6 84 84 N 3 6 30.36 1028 10 16.0934 0 0
12:35 am 00:35 Clear 28 -2.1 24 -4.5 84 84 N 3 6 30.36 1028 10 16.0934 0 0
12:55 am 00:55 Clear 26 -3.1 23 -5.2 86 86 N 5 7 30.36 1028 10 16.0934 0 0
1:15 am 01:15 Clear 26 -3.3 23 -5.1 88 88 Calm 30.36 1028 10 16.0934 0 0
1:35 am 01:35 Clear 26 -3.1 24 -4.6 90 90 Calm 30.36 1028 10 16.0934 0 0
1:55 am 01:55 Clear 25 -4.1 23 -5.2 92 92 Calm 30.39 1029 10 16.0934 0 0
2:15 am 02:15 Clear 26 -3.5 23 -5 89 89 Calm 30.39 1029 10 16.0934 0 0
2:35 am 02:35 Clear 24 -4.6 22 -5.6 93 93 Calm 30.42 1030 10 16.0934 0 0
2:55 am 02:55 Clear 26 -3.5 23 -5 89 89 W 3 6 30.39 1029 10 16.0934 0 0
3:15 am 03:15 Clear 25 -4.1 22 -5.5 90 90 W 3 6 30.39 1029 10 16.0934 0 0
3:35 am 03:35 Clear 25 -4 22 -5.4 90 90 W 3 6 30.39 1029 10 16.0934 0 0
3:55 am 03:55 Clear 26 -3.1 23 -5 87 87 SW 3 6 30.36 1028 10 16.0934 0 0
4:15 am 04:15 Clear 27 -2.6 23 -4.8 85 85 SSW 6 9 30.36 1028 10 16.0934 0 0
4:35 am 04:35 Clear 28 -2.5 23 -4.9 84 84 SSW 7 11 30.36 1028 10 16.0934 0 0
4:55 am 04:55 Clear 26 -3.1 22 -5.3 85 85 SW 6 9 30.36 1028 10 16.0934 0 0
5:15 am 05:15 Clear 28 -2 23 -4.9 81 81 SSW 5 7 30.33 1027 10 16.0934 0 0
5:35 am 05:35 Clear 26 -3.1 23 -5.2 86 86 SW 7 11 30.33 1027 10 16.0934 0 0
5:55 am 05:55 Clear 25 -3.8 22 -5.5 88 88 SW 5 7 30.36 1028 10 16.0934 0 0
6:15 am 06:15 Clear 25 -4 22 -5.6 89 89 SW 3 6 30.36 1028 10 16.0934 0 0
6:35 am 06:35 Clear 24 -4.5 22 -5.8 91 91 Calm 30.39 1029 10 16.0934 0 0
6:55 am 06:55 Clear 24 -4.5 22 -5.7 91 91 W 3 6 30.39 1029 10 16.0934 0 0
7:15 am 07:15 Clear 24 -4.7 21 -6 91 91 Calm 30.39 1029 10 16.0934 0 0
7:35 am 07:35 Sunny 24 -4.6 22 -5.6 93 93 Calm 30.39 1029 10 16.0934 0 0
7:55 am 07:55 Sunny 25 -4.1 22 -5.6 89 89 Calm 30.36 1028 10 16.0934 0 0
8:15 am 08:15 Sunny 27 -2.6 24 -4.4 88 88 Calm 30.36 1028 10 16.0934 0 0
8:35 am 08:35 Sunny 30 -1.2 26 -3.6 84 84 SW 6 9 30.33 1027 10 16.0934 0 0
8:55 am 08:55 Sunny 32 0 27 -2.6 83 83 SW 8 13 30.33 1027 10 16.0934 0 0
9:15 am 09:15 Sunny 34 1 28 -2.3 79 79 WSW 8 13 30.33 1027 10 16.0934 0 0
9:35 am 09:35 Sunny 36 2 28 -2.1 75 75 SW 10 17 30.3 1026 10 16.0934 0 0
9:55 am 09:55 Sunny 37 3 28 -2 70 70 SW 13 20 30.3 1026 10 16.0934 0 0
10:15 am 10:15 Sunny 39 4 28 -2.1 65 65 SW 15 24 30.3 1026 10 16.0934 0 0
10:35 am 10:35 Sunny 40 4.7 28 -2 62 62 SW 12 19 30.3 1026 10 16.0934 0 0
10:55 am 10:55 Sunny 42 5.8 28 -2.1 57 57 SW 10 17 30.27 1025 10 16.0934 0 0
11:15 am 11:15 Sunny 44 6.9 29 -1.6 55 55 SW 8 13 30.24 1024 10 16.0934 0 0
11:35 am 11:35 Sunny 47 8.1 31 -0.5 55 55 SW 10 17 30.21 1023 10 16.0934 0 0
11:55 am 11:55 Sunny 49 9.2 32 0 53 53 SW 10 17 30.21 1023 10 16.0934 0 0
12:15 pm 12:15 Sunny 49 9.4 32 -0.2 51 51 SSW 13 20 30.21 1023 10 16.0934 0 0
12:35 pm 12:35 Sunny 51 10.4 32 0.1 49 49 SW 14 22 30.18 1022 10 16.0934 0 0
12:55 pm 12:55 Sunny 52 11.3 33 0.3 47 47 SW 10 17 30.15 1021 10 16.0934 0 0
1:15 pm 13:15 Sunny 54 12.4 32 -0.2 42 42 SSW 13 20 30.12 1020 10 16.0934 0 0
1:35 pm 13:35 Sunny 56 13.1 31 -0.5 39 39 SW 15 24 30.12 1020 10 16.0934 0 0
1:55 pm 13:55 Sunny 56 13.3 30 -1.1 37 37 SSW 14 22 30.12 1020 10 16.0934 0 0
2:15 pm 14:15 Sunny 57 14 29 -1.5 35 35 SSW 16 26 30.09 1019 10 16.0934 0 0
2:35 pm 14:35 Sunny 58 14.5 27 -2.9 30 30 SSW 21 33 30.06 1018 10 16.0934 0 0
2:55 pm 14:55 Sunny 58 14.6 26 -3.4 29 29 SSW 24 39 30.03 1017 10 16.0934 0 0
3:15 pm 15:15 Sunny 59 15.1 27 -3 29 29 S 23 37 30.03 1017 10 16.0934 0 0
3:35 pm 15:35 Sunny 60 15.5 26 -3.5 27 27 SSW 17 28 30 1016 10 16.0934 0 0
3:55 pm 15:55 Sunny 61 16.1 25 -4 25 25 S 24 39 29.94 1014 10 16.0934 0 0
4:15 pm 16:15 Sunny 61 16 26 -3.6 26 26 SSW 24 39 29.94 1014 10 16.0934 0 0
4:35 pm 16:35 Sunny 62 16.6 27 -3 26 26 SSW 26 43 29.91 1013 10 16.0934 0 0
4:55 pm 16:55 Sunny 62 16.5 27 -2.7 27 27 S 21 33 29.91 1013 10 16.0934 0 0
5:15 pm 17:15 Sunny 62 16.8 27 -2.8 26 26 SSW 18 30 29.91 1013 10 16.0934 0 0
5:35 pm 17:35 Sunny 63 17 28 -2.4 27 27 SSW 24 39 29.88 1012 10 16.0934 0 0
5:55 pm 17:55 Sunny 62 16.9 29 -1.6 28 28 SSW 22 35 29.88 1012 10 16.0934 0 0
6:15 pm 18:15 Sunny 62 16.6 30 -0.9 31 31 SSW 22 35 29.85 1011 10 16.0934 0 0
6:35 pm 18:35 Sunny 62 16.6 32 0 33 33 SSW 20 31 29.85 1011 10 16.0934 0 0
6:55 pm 18:55 Partly Cloudy 62 16.6 34 1.1 35 35 SSW 20 31 29.83 1010 10 16.0934 0 0
7:15 pm 19:15 Partly Cloudy 62 16.5 35 1.8 37 37 SSW 20 31 29.83 1010 10 16.0934 0 0
7:35 pm 19:35 Partly Cloudy 60 15.4 36 2.3 42 42 S 16 26 29.83 1010 10 16.0934 0 0
7:55 pm 19:55 Sunny 58 14.7 38 3.2 46 46 S 15 24 29.85 1011 10 16.0934 0 0
8:15 pm 20:15 Clear 58 14.4 39 3.8 49 49 S 16 26 29.83 1010 10 16.0934 0 0
8:35 pm 20:35 Clear 57 14 40 4.3 52 52 S 16 26 29.83 1010 10 16.0934 0 0
8:55 pm 20:55 Clear 56 13.3 40 4.6 56 56 S 17 28 29.83 1010 10 16.0934 0 0
9:15 pm 21:15 Clear 56 13.2 41 5 58 58 SSW 20 31 29.83 1010 10 16.0934 0 0
9:35 pm 21:35 Clear 56 13.1 41 5.2 59 59 SSW 20 31 29.83 1010 10 16.0934 0 0
9:55 pm 21:55 Clear 55 12.8 42 5.3 61 61 S 17 28 29.83 1010 10 16.0934 0 0
10:15 pm 22:15 Clear 55 12.5 41 5.2 61 61 S 17 28 29.83 1010 10 16.0934 0 0
10:35 pm 22:35 Clear 55 12.5 41 5.2 61 61 S 18 30 29.83 1010 10 16.0934 0 0
10:55 pm 22:55 Clear 54 12.1 42 5.3 63 63 S 17 28 29.8 1009 10 16.0934 0 0
11:15 pm 23:15 Clear 53 11.7 41 5 64 64 S 17 28 29.8 1009 10 16.0934 0 0
11:35 pm 23:35 Clear 53 11.5 41 5 65 65 S 17 28 29.8 1009 10 16.0934 0 0
11:55 pm 23:55 Clear 52 11.1 41 4.9 66 66 SSW 16 26 29.8 1009 10 16.0934 0 0

Powered by AerisWeather